Year,Month,Day,Hour,Minute,Value (Times are PST for temperature in C)
2014,05,01,00,00,14.80
2014,05,01,00,01,14.70
2014,05,01,00,02,14.70
2014,05,01,00,03,14.70
2014,05,01,00,04,14.70
2014,05,01,00,05,14.70
2014,05,01,00,06,14.70
2014,05,01,00,07,14.70
2014,05,01,00,08,14.00
2014,05,01,00,09,13.90
2014,05,01,00,10,13.80
2014,05,01,00,11,13.70
2014,05,01,00,12,13.70
2014,05,01,00,13,13.60
2014,05,01,00,14,13.50
2014,05,01,00,15,13.50
2014,05,01,00,16,13.40
2014,05,01,00,17,13.30
2014,05,01,00,18,13.30
2014,05,01,00,19,13.20
2014,05,01,00,20,13.20
2014,05,01,00,21,13.10
2014,05,01,00,22,13.10
2014,05,01,00,23,13.00
2014,05,01,00,24,13.00
2014,05,01,00,25,12.90
2014,05,01,00,26,12.90
2014,05,01,00,27,12.90
2014,05,01,00,28,12.80
2014,05,01,00,29,12.80
2014,05,01,00,30,12.80
2014,05,01,00,31,12.80
2014,05,01,00,32,12.80
2014,05,01,00,33,12.70
2014,05,01,00,34,12.70
2014,05,01,00,35,12.70
2014,05,01,00,36,12.70
2014,05,01,00,37,12.70
2014,05,01,00,38,12.70
2014,05,01,00,39,12.60
2014,05,01,00,40,12.60
2014,05,01,00,41,12.60
2014,05,01,00,42,12.60
2014,05,01,00,43,12.60
2014,05,01,00,44,12.50
2014,05,01,00,45,12.50
2014,05,01,00,46,12.50
2014,05,01,00,47,12.50
2014,05,01,00,48,12.50
2014,05,01,00,49,12.50
2014,05,01,00,50,12.40
2014,05,01,00,51,12.40
2014,05,01,00,52,12.40
2014,05,01,00,53,12.40
2014,05,01,00,54,12.40
2014,05,01,00,55,12.40
2014,05,01,00,56,12.40
2014,05,01,00,57,12.40
2014,05,01,00,58,12.40
2014,05,01,00,59,12.40
2014,05,01,01,00,12.40
2014,05,01,01,01,12.40
2014,05,01,01,02,12.30
2014,05,01,01,03,12.30
2014,05,01,01,04,12.30
2014,05,01,01,05,12.30
2014,05,01,01,06,12.30
2014,05,01,01,07,12.30
2014,05,01,01,08,12.30
2014,05,01,01,09,12.30
2014,05,01,01,10,12.30
2014,05,01,01,11,12.30
2014,05,01,01,12,12.30
2014,05,01,01,13,12.30
2014,05,01,01,14,12.30
2014,05,01,01,15,12.30
2014,05,01,01,16,12.40
2014,05,01,01,17,12.40
2014,05,01,01,18,12.40
2014,05,01,01,19,12.40
2014,05,01,01,20,12.40
2014,05,01,01,21,12.40
2014,05,01,01,22,12.50
2014,05,01,01,23,12.50
2014,05,01,01,24,12.50
2014,05,01,01,25,12.50
2014,05,01,01,26,12.50
2014,05,01,01,27,12.50
2014,05,01,01,28,12.50
2014,05,01,01,29,12.50
2014,05,01,01,30,12.50
2014,05,01,01,31,12.50
2014,05,01,01,32,12.50
2014,05,01,01,33,12.50
2014,05,01,01,34,12.50
2014,05,01,01,35,12.50
2014,05,01,01,36,12.60
2014,05,01,01,37,12.60
2014,05,01,01,38,12.60
2014,05,01,01,39,12.60
2014,05,01,01,40,12.60
2014,05,01,01,41,12.60
2014,05,01,01,42,12.60
2014,05,01,01,43,12.60
2014,05,01,01,44,12.60
2014,05,01,01,45,12.60
2014,05,01,01,46,12.60
2014,05,01,01,47,12.50
2014,05,01,01,48,12.50
2014,05,01,01,49,12.50
2014,05,01,01,50,12.50
2014,05,01,01,51,12.50
2014,05,01,01,52,12.40
2014,05,01,01,53,12.40
2014,05,01,01,54,12.40
2014,05,01,01,55,12.30
2014,05,01,01,56,12.30
2014,05,01,01,57,12.30
2014,05,01,01,58,12.30
2014,05,01,01,59,12.30
2014,05,01,02,00,12.30
2014,05,01,02,01,12.30
2014,05,01,02,02,12.30
2014,05,01,02,03,12.50
2014,05,01,02,04,12.50
2014,05,01,02,05,12.60
2014,05,01,02,06,12.70
2014,05,01,02,07,12.80
2014,05,01,02,08,12.90
2014,05,01,02,09,13.00
2014,05,01,02,10,13.10
2014,05,01,02,11,13.20
2014,05,01,02,12,13.30
2014,05,01,02,13,13.30
2014,05,01,02,14,13.40
2014,05,01,02,15,13.50
2014,05,01,02,16,13.60
2014,05,01,02,17,13.60
2014,05,01,02,18,13.70
2014,05,01,02,19,13.70
2014,05,01,02,20,13.70
2014,05,01,02,21,13.60
2014,05,01,02,22,13.60
2014,05,01,02,23,13.60
2014,05,01,02,24,13.50
2014,05,01,02,25,13.50
2014,05,01,02,26,13.50
2014,05,01,02,27,13.40
2014,05,01,02,28,13.30
2014,05,01,02,29,13.30
2014,05,01,02,30,13.30
2014,05,01,02,31,13.30
2014,05,01,02,32,13.20
2014,05,01,02,33,13.20
2014,05,01,02,34,13.10
2014,05,01,02,35,13.10
2014,05,01,02,36,13.00
2014,05,01,02,37,12.90
2014,05,01,02,38,12.90
2014,05,01,02,39,12.80
2014,05,01,02,40,12.80
2014,05,01,02,41,12.70
2014,05,01,02,42,12.70
2014,05,01,02,43,12.70
2014,05,01,02,44,12.70
2014,05,01,02,45,12.80
2014,05,01,02,46,12.80
2014,05,01,02,47,12.90
2014,05,01,02,48,13.00
2014,05,01,02,49,13.10
2014,05,01,02,50,13.10
2014,05,01,02,51,13.20
2014,05,01,02,52,13.20
2014,05,01,02,53,13.30
2014,05,01,02,54,13.30
2014,05,01,02,55,13.30
2014,05,01,02,56,13.40
2014,05,01,02,57,13.40
2014,05,01,02,58,13.50
2014,05,01,02,59,13.50
2014,05,01,03,00,13.50
2014,05,01,03,01,13.60
2014,05,01,03,02,13.60
2014,05,01,03,03,13.60
2014,05,01,03,04,13.70
2014,05,01,03,05,13.70
2014,05,01,03,06,13.70
2014,05,01,03,07,13.70
2014,05,01,03,08,13.70
2014,05,01,03,09,13.70
2014,05,01,03,10,13.60
2014,05,01,03,11,13.60
2014,05,01,03,12,13.50
2014,05,01,03,13,13.50
2014,05,01,03,14,13.40
2014,05,01,03,15,13.40
2014,05,01,03,16,13.30
2014,05,01,03,17,13.30
2014,05,01,03,18,13.30
2014,05,01,03,19,13.30
2014,05,01,03,20,13.20
2014,05,01,03,21,13.20
2014,05,01,03,22,13.10
2014,05,01,03,23,13.10
2014,05,01,03,24,13.10
2014,05,01,03,25,13.10
2014,05,01,03,26,13.20
2014,05,01,03,27,13.20
2014,05,01,03,28,13.30
2014,05,01,03,29,13.30
2014,05,01,03,30,13.30
2014,05,01,03,31,13.40
2014,05,01,03,32,13.40
2014,05,01,03,33,13.40
2014,05,01,03,34,13.50
2014,05,01,03,35,13.50
2014,05,01,03,36,13.50
2014,05,01,03,37,13.50
2014,05,01,03,38,13.50
2014,05,01,03,39,13.50
2014,05,01,03,40,13.50
2014,05,01,03,41,13.50
2014,05,01,03,42,13.40
2014,05,01,03,43,13.40
2014,05,01,03,44,13.40
2014,05,01,03,45,13.40
2014,05,01,03,46,13.40
2014,05,01,03,47,13.30
2014,05,01,03,48,13.30
2014,05,01,03,49,13.30
2014,05,01,03,50,13.30
2014,05,01,03,51,13.30
2014,05,01,03,52,13.30
2014,05,01,03,53,13.30
2014,05,01,03,54,13.30
2014,05,01,03,55,13.30
2014,05,01,03,56,13.30
2014,05,01,03,57,13.30
2014,05,01,03,58,13.30
2014,05,01,03,59,13.30
2014,05,01,04,00,13.30
2014,05,01,04,01,13.30
2014,05,01,04,02,13.40
2014,05,01,04,03,13.40
2014,05,01,04,04,13.50
2014,05,01,04,05,13.50
2014,05,01,04,06,13.50
2014,05,01,04,07,13.50
2014,05,01,04,08,13.50
2014,05,01,04,09,13.50
2014,05,01,04,10,13.50
2014,05,01,04,11,13.50
2014,05,01,04,12,13.50
2014,05,01,04,13,13.50
2014,05,01,04,14,13.50
2014,05,01,04,15,13.60
2014,05,01,04,16,13.60
2014,05,01,04,17,13.60
2014,05,01,04,18,13.60
2014,05,01,04,19,13.60
2014,05,01,04,20,13.60
2014,05,01,04,21,13.60
2014,05,01,04,22,13.50
2014,05,01,04,23,13.50
2014,05,01,04,24,13.50
2014,05,01,04,25,13.50
2014,05,01,04,26,13.50
2014,05,01,04,27,13.50
2014,05,01,04,28,13.50
2014,05,01,04,29,13.50
2014,05,01,04,30,13.50
2014,05,01,04,31,13.50
2014,05,01,04,32,13.50
2014,05,01,04,33,13.50
2014,05,01,04,34,13.40
2014,05,01,04,35,13.40
2014,05,01,04,36,13.40
2014,05,01,04,37,13.30
2014,05,01,04,38,13.30
2014,05,01,04,39,13.30
2014,05,01,04,40,13.30
2014,05,01,04,41,13.30
2014,05,01,04,42,13.30
2014,05,01,04,43,13.40
2014,05,01,04,44,13.40
2014,05,01,04,45,13.40
2014,05,01,04,46,13.40
2014,05,01,04,47,13.40
2014,05,01,04,48,13.50
2014,05,01,04,49,13.50
2014,05,01,04,50,13.50
2014,05,01,04,51,13.60
2014,05,01,04,52,13.60
2014,05,01,04,53,13.70
2014,05,01,04,54,13.70
2014,05,01,04,55,13.70
2014,05,01,04,56,13.70
2014,05,01,04,57,13.70
2014,05,01,04,58,13.70
2014,05,01,04,59,13.70
2014,05,01,05,00,13.80
2014,05,01,05,01,13.80
2014,05,01,05,02,13.90
2014,05,01,05,03,14.00
2014,05,01,05,04,14.10
2014,05,01,05,05,14.20
2014,05,01,05,06,14.20
2014,05,01,05,07,14.20
2014,05,01,05,08,14.30
2014,05,01,05,09,14.40
2014,05,01,05,10,14.40
2014,05,01,05,11,14.40
2014,05,01,05,12,14.50
2014,05,01,05,13,14.50
2014,05,01,05,14,14.50
2014,05,01,05,15,14.50
2014,05,01,05,16,14.50
2014,05,01,05,17,14.50
2014,05,01,05,18,14.50
2014,05,01,05,19,14.50
2014,05,01,05,20,14.50
2014,05,01,05,21,14.50
2014,05,01,05,22,14.50
2014,05,01,05,23,14.50
2014,05,01,05,24,14.50
2014,05,01,05,25,14.50
2014,05,01,05,26,14.50
2014,05,01,05,27,14.50
2014,05,01,05,28,14.60
2014,05,01,05,29,14.60
2014,05,01,05,30,14.60
2014,05,01,05,31,14.60
2014,05,01,05,32,14.70
2014,05,01,05,33,14.70
2014,05,01,05,34,14.70
2014,05,01,05,35,14.70
2014,05,01,05,36,14.60
2014,05,01,05,37,14.60
2014,05,01,05,38,14.60
2014,05,01,05,39,14.50
2014,05,01,05,40,14.50
2014,05,01,05,41,14.50
2014,05,01,05,42,14.40
2014,05,01,05,43,14.40
2014,05,01,05,44,14.30
2014,05,01,05,45,14.30
2014,05,01,05,46,14.40
2014,05,01,05,47,14.40
2014,05,01,05,48,14.40
2014,05,01,05,49,14.40
2014,05,01,05,50,14.40
2014,05,01,05,51,14.40
2014,05,01,05,52,14.40
2014,05,01,05,53,14.40
2014,05,01,05,54,14.40
2014,05,01,05,55,14.40
2014,05,01,05,56,14.40
2014,05,01,05,57,14.40
2014,05,01,05,58,14.40
2014,05,01,05,59,14.50
2014,05,01,06,00,14.50
2014,05,01,06,01,14.60
2014,05,01,06,02,14.60
2014,05,01,06,03,14.70
2014,05,01,06,04,14.70
2014,05,01,06,05,14.70
2014,05,01,06,06,14.80
2014,05,01,06,07,14.80
2014,05,01,06,08,14.80
2014,05,01,06,09,14.80
2014,05,01,06,10,14.80
2014,05,01,06,11,14.80
2014,05,01,06,12,14.80
2014,05,01,06,13,14.80
2014,05,01,06,14,14.80
2014,05,01,06,15,14.80
2014,05,01,06,16,14.80
2014,05,01,06,17,14.80
2014,05,01,06,18,14.90
2014,05,01,06,19,14.90
2014,05,01,06,20,14.90
2014,05,01,06,21,14.90
2014,05,01,06,22,14.90
2014,05,01,06,23,14.90
2014,05,01,06,24,14.90
2014,05,01,06,25,14.90
2014,05,01,06,26,14.90
2014,05,01,06,27,14.90
2014,05,01,06,28,14.90
2014,05,01,06,29,15.00
2014,05,01,06,30,15.00
2014,05,01,06,31,15.00
2014,05,01,06,32,15.00
2014,05,01,06,33,15.00
2014,05,01,06,34,15.10
2014,05,01,06,35,15.10
2014,05,01,06,36,15.10
2014,05,01,06,37,15.10
2014,05,01,06,38,15.10
2014,05,01,06,39,15.10
2014,05,01,06,40,15.20
2014,05,01,06,41,15.20
2014,05,01,06,42,15.20
2014,05,01,06,43,15.20
2014,05,01,06,44,15.20
2014,05,01,06,45,15.20
2014,05,01,06,46,15.30
2014,05,01,06,47,15.30
2014,05,01,06,48,15.30
2014,05,01,06,49,15.30
2014,05,01,06,50,15.30
2014,05,01,06,51,15.30
2014,05,01,06,52,15.30
2014,05,01,06,53,15.40
2014,05,01,06,54,15.40
2014,05,01,06,55,15.40
2014,05,01,06,56,15.40
2014,05,01,06,57,15.50
2014,05,01,06,58,15.50
2014,05,01,06,59,15.50
2014,05,01,07,00,15.50
2014,05,01,07,01,15.60
2014,05,01,07,02,15.60
2014,05,01,07,03,15.60
2014,05,01,07,04,15.60
2014,05,01,07,05,15.60
2014,05,01,07,06,15.70
2014,05,01,07,07,15.70
2014,05,01,07,08,15.70
2014,05,01,07,09,15.70
2014,05,01,07,10,15.70
2014,05,01,07,11,15.70
2014,05,01,07,12,15.70
2014,05,01,07,13,15.80
2014,05,01,07,14,15.80
2014,05,01,07,15,15.80
2014,05,01,07,16,15.80
2014,05,01,07,17,15.80
2014,05,01,07,18,15.80
2014,05,01,07,19,15.80
2014,05,01,07,20,15.80
2014,05,01,07,21,15.80
2014,05,01,07,22,15.80
2014,05,01,07,23,15.80
2014,05,01,07,24,15.80
2014,05,01,07,25,15.80
2014,05,01,07,26,15.80
2014,05,01,07,27,15.80
2014,05,01,07,28,15.80
2014,05,01,07,29,15.80
2014,05,01,07,30,15.80
2014,05,01,07,31,15.80
2014,05,01,07,32,15.80
2014,05,01,07,33,15.80
2014,05,01,07,34,15.80
2014,05,01,07,35,15.80
2014,05,01,07,36,15.80
2014,05,01,07,37,15.80
2014,05,01,07,38,15.90
2014,05,01,07,39,15.90
2014,05,01,07,40,15.90
2014,05,01,07,41,15.90
2014,05,01,07,42,15.90
2014,05,01,07,43,16.00
2014,05,01,07,44,16.10
2014,05,01,07,45,16.10
2014,05,01,07,46,16.10
2014,05,01,07,47,16.10
2014,05,01,07,48,16.10
2014,05,01,07,49,16.10
2014,05,01,07,50,16.10
2014,05,01,07,51,16.10
2014,05,01,07,52,16.10
2014,05,01,07,53,16.20
2014,05,01,07,54,16.20
2014,05,01,07,55,16.20
2014,05,01,07,56,16.30
2014,05,01,07,57,16.30
2014,05,01,07,58,16.40
2014,05,01,07,59,16.40
2014,05,01,08,00,16.50
2014,05,01,08,01,16.60
2014,05,01,08,02,16.60
2014,05,01,08,03,16.70
2014,05,01,08,04,16.70
2014,05,01,08,05,16.70
2014,05,01,08,06,16.80
2014,05,01,08,07,16.90
2014,05,01,08,08,16.90
2014,05,01,08,09,17.00
2014,05,01,08,10,17.00
2014,05,01,08,11,17.00
2014,05,01,08,12,17.10
2014,05,01,08,13,17.10
2014,05,01,08,14,17.10
2014,05,01,08,15,17.10
2014,05,01,08,16,17.20
2014,05,01,08,17,17.20
2014,05,01,08,18,17.30
2014,05,01,08,19,17.30
2014,05,01,08,20,17.30
2014,05,01,08,21,17.30
2014,05,01,08,22,17.30
2014,05,01,08,23,17.30
2014,05,01,08,24,17.40
2014,05,01,08,25,17.40
2014,05,01,08,26,17.40
2014,05,01,08,27,17.50
2014,05,01,08,28,17.50
2014,05,01,08,29,17.60
2014,05,01,08,30,17.60
2014,05,01,08,31,17.70
2014,05,01,08,32,17.80
2014,05,01,08,33,17.80
2014,05,01,08,34,17.90
2014,05,01,08,35,17.90
2014,05,01,08,36,17.90
2014,05,01,08,37,17.90
2014,05,01,08,38,17.90
2014,05,01,08,39,17.90
2014,05,01,08,40,17.90
2014,05,01,08,41,17.90
2014,05,01,08,42,17.90
2014,05,01,08,43,17.90
2014,05,01,08,44,17.90
2014,05,01,08,45,17.90
2014,05,01,08,46,17.90
2014,05,01,08,47,18.00
2014,05,01,08,48,18.10
2014,05,01,08,49,18.10
2014,05,01,08,50,18.10
2014,05,01,08,51,18.20
2014,05,01,08,52,18.20
2014,05,01,08,53,18.20
2014,05,01,08,54,18.30
2014,05,01,08,55,18.30
2014,05,01,08,56,18.20
2014,05,01,08,57,18.20
2014,05,01,08,58,18.20
2014,05,01,08,59,18.20
2014,05,01,09,00,18.20
2014,05,01,09,01,18.20
2014,05,01,09,02,18.20
2014,05,01,09,03,18.20
2014,05,01,09,04,18.20
2014,05,01,09,05,18.20
2014,05,01,09,06,18.20
2014,05,01,09,07,18.20
2014,05,01,09,08,18.20
2014,05,01,09,09,18.30
2014,05,01,09,10,18.30
2014,05,01,09,11,18.40
2014,05,01,09,12,18.40
2014,05,01,09,13,18.50
2014,05,01,09,14,18.50
2014,05,01,09,15,18.60
2014,05,01,09,16,18.60
2014,05,01,09,17,18.70
2014,05,01,09,18,18.70
2014,05,01,09,19,18.70
2014,05,01,09,20,18.70
2014,05,01,09,21,18.60
2014,05,01,09,22,18.60
2014,05,01,09,23,18.50
2014,05,01,09,24,18.50
2014,05,01,09,25,18.60
2014,05,01,09,26,18.70
2014,05,01,09,27,18.80
2014,05,01,09,28,18.90
2014,05,01,09,29,18.90
2014,05,01,09,30,18.90
2014,05,01,09,31,19.10
2014,05,01,09,32,19.10
2014,05,01,09,33,19.20
2014,05,01,09,34,19.20
2014,05,01,09,35,19.20
2014,05,01,09,36,19.30
2014,05,01,09,37,19.20
2014,05,01,09,38,19.20
2014,05,01,09,39,19.10
2014,05,01,09,40,19.10
2014,05,01,09,41,19.10
2014,05,01,09,42,19.10
2014,05,01,09,43,19.10
2014,05,01,09,44,19.10
2014,05,01,09,45,19.10
2014,05,01,09,46,19.10
2014,05,01,09,47,19.10
2014,05,01,09,48,19.20
2014,05,01,09,49,19.20
2014,05,01,09,50,19.30
2014,05,01,09,51,19.40
2014,05,01,09,52,19.40
2014,05,01,09,53,19.50
2014,05,01,09,54,19.60
2014,05,01,09,55,19.60
2014,05,01,09,56,19.70
2014,05,01,09,57,19.80
2014,05,01,09,58,19.80
2014,05,01,09,59,19.80
2014,05,01,10,00,19.80
2014,05,01,10,01,19.80
2014,05,01,10,02,19.80
2014,05,01,10,03,19.90
2014,05,01,10,04,19.90
2014,05,01,10,05,19.90
2014,05,01,10,06,19.90
2014,05,01,10,07,19.80
2014,05,01,10,08,19.70
2014,05,01,10,09,19.70
2014,05,01,10,10,19.80
2014,05,01,10,11,19.70
2014,05,01,10,12,19.70
2014,05,01,10,13,19.80
2014,05,01,10,14,19.80
2014,05,01,10,15,19.90
2014,05,01,10,16,19.90
2014,05,01,10,17,19.90
2014,05,01,10,18,19.90
2014,05,01,10,19,20.00
2014,05,01,10,20,19.90
2014,05,01,10,21,20.10
2014,05,01,10,22,19.90
2014,05,01,10,23,19.90
2014,05,01,10,24,19.80
2014,05,01,10,25,19.80
2014,05,01,10,26,19.80
2014,05,01,10,27,19.70
2014,05,01,10,28,19.70
2014,05,01,10,29,19.60
2014,05,01,10,30,19.70
2014,05,01,10,31,19.90
2014,05,01,10,32,19.90
2014,05,01,10,33,19.90
2014,05,01,10,34,20.00
2014,05,01,10,35,20.10
2014,05,01,10,36,20.10
2014,05,01,10,37,20.20
2014,05,01,10,38,20.20
2014,05,01,10,39,20.20
2014,05,01,10,40,20.20
2014,05,01,10,41,20.20
2014,05,01,10,42,20.20
2014,05,01,10,43,20.20
2014,05,01,10,44,20.20
2014,05,01,10,45,20.20
2014,05,01,10,46,20.20
2014,05,01,10,47,20.40
2014,05,01,10,48,20.50
2014,05,01,10,49,20.60
2014,05,01,10,50,20.70
2014,05,01,10,51,20.80
2014,05,01,10,52,20.80
2014,05,01,10,53,20.80
2014,05,01,10,54,20.70
2014,05,01,10,55,20.70
2014,05,01,10,56,20.60
2014,05,01,10,57,20.50
2014,05,01,10,58,20.50
2014,05,01,10,59,20.40
2014,05,01,11,00,20.30
2014,05,01,11,01,20.40
2014,05,01,11,02,20.40
2014,05,01,11,03,20.50
2014,05,01,11,04,20.50
2014,05,01,11,05,20.60
2014,05,01,11,06,20.70
2014,05,01,11,07,20.70
2014,05,01,11,08,20.70
2014,05,01,11,09,20.80
2014,05,01,11,10,20.80
2014,05,01,11,11,20.70
2014,05,01,11,12,20.70
2014,05,01,11,13,20.60
2014,05,01,11,14,20.50
2014,05,01,11,15,20.50
2014,05,01,11,16,20.50
2014,05,01,11,17,20.60
2014,05,01,11,18,20.60
2014,05,01,11,19,20.70
2014,05,01,11,20,20.70
2014,05,01,11,21,20.80
2014,05,01,11,22,20.80
2014,05,01,11,23,20.90
2014,05,01,11,24,20.90
2014,05,01,11,25,20.90
2014,05,01,11,26,21.00
2014,05,01,11,27,21.00
2014,05,01,11,28,21.00
2014,05,01,11,29,21.00
2014,05,01,11,30,21.00
2014,05,01,11,31,21.00
2014,05,01,11,32,21.00
2014,05,01,11,33,21.10
2014,05,01,11,34,21.10
2014,05,01,11,35,21.10
2014,05,01,11,36,21.10
2014,05,01,11,37,21.20
2014,05,01,11,38,21.20
2014,05,01,11,39,21.20
2014,05,01,11,40,21.20
2014,05,01,11,41,21.20
2014,05,01,11,42,21.20
2014,05,01,11,43,21.30
2014,05,01,11,44,21.30
2014,05,01,11,45,21.30
2014,05,01,11,46,21.30
2014,05,01,11,47,21.20
2014,05,01,11,48,21.10
2014,05,01,11,49,21.10
2014,05,01,11,50,21.10
2014,05,01,11,51,21.10
2014,05,01,11,52,21.10
2014,05,01,11,53,21.10
2014,05,01,11,54,21.00
2014,05,01,11,55,21.00
2014,05,01,11,56,20.90
2014,05,01,11,57,20.80
2014,05,01,11,58,20.90
2014,05,01,11,59,20.90
2014,05,01,12,00,20.90
2014,05,01,12,01,20.90
2014,05,01,12,02,20.90
2014,05,01,12,03,21.00
2014,05,01,12,04,21.00
2014,05,01,12,05,21.20
2014,05,01,12,06,21.30
2014,05,01,12,07,21.30
2014,05,01,12,08,21.30
2014,05,01,12,09,21.40
2014,05,01,12,10,21.60
2014,05,01,12,11,21.60
2014,05,01,12,12,21.70
2014,05,01,12,13,21.90
2014,05,01,12,14,22.00
2014,05,01,12,15,22.20
2014,05,01,12,16,22.20
2014,05,01,12,17,22.30
2014,05,01,12,18,22.30
2014,05,01,12,19,22.30
2014,05,01,12,20,22.30
2014,05,01,12,21,22.30
2014,05,01,12,22,22.30
2014,05,01,12,23,22.30
2014,05,01,12,24,22.40
2014,05,01,12,25,22.50
2014,05,01,12,26,22.60
2014,05,01,12,27,22.60
2014,05,01,12,28,22.60
2014,05,01,12,29,22.60
2014,05,01,12,30,22.60
2014,05,01,12,31,22.70
2014,05,01,12,32,22.70
2014,05,01,12,33,22.80
2014,05,01,12,34,22.80
2014,05,01,12,35,22.80
2014,05,01,12,36,22.70
2014,05,01,12,37,22.70
2014,05,01,12,38,22.70
2014,05,01,12,39,22.70
2014,05,01,12,40,22.70
2014,05,01,12,41,22.70
2014,05,01,12,42,22.80
2014,05,01,12,43,22.90
2014,05,01,12,44,23.10
2014,05,01,12,45,23.00
2014,05,01,12,46,22.90
2014,05,01,12,47,22.90
2014,05,01,12,48,23.00
2014,05,01,12,49,23.10
2014,05,01,12,50,23.20
2014,05,01,12,51,23.20
2014,05,01,12,52,23.30
2014,05,01,12,53,23.30
2014,05,01,12,54,23.30
2014,05,01,12,55,23.40
2014,05,01,12,56,23.50
2014,05,01,12,57,23.60
2014,05,01,12,58,23.60
2014,05,01,12,59,23.60
2014,05,01,13,00,23.50
2014,05,01,13,01,23.40
2014,05,01,13,02,23.50
2014,05,01,13,03,23.60
2014,05,01,13,04,23.60
2014,05,01,13,05,23.60
2014,05,01,13,06,23.50
2014,05,01,13,07,23.40
2014,05,01,13,08,23.30
2014,05,01,13,09,23.30
2014,05,01,13,10,23.30
2014,05,01,13,11,23.30
2014,05,01,13,12,23.30
2014,05,01,13,13,23.40
2014,05,01,13,14,23.40
2014,05,01,13,15,23.40
2014,05,01,13,16,23.30
2014,05,01,13,17,23.30
2014,05,01,13,18,23.30
2014,05,01,13,19,23.40
2014,05,01,13,20,23.40
2014,05,01,13,21,23.30
2014,05,01,13,22,23.30
2014,05,01,13,23,23.30
2014,05,01,13,24,23.20
2014,05,01,13,25,23.10
2014,05,01,13,26,23.00
2014,05,01,13,27,23.00
2014,05,01,13,28,23.10
2014,05,01,13,29,23.20
2014,05,01,13,30,23.20
2014,05,01,13,31,23.30
2014,05,01,13,32,23.50
2014,05,01,13,33,23.70
2014,05,01,13,34,23.70
2014,05,01,13,35,23.70
2014,05,01,13,36,23.70
2014,05,01,13,37,23.90
2014,05,01,13,38,23.90
2014,05,01,13,39,23.90
2014,05,01,13,40,24.10
2014,05,01,13,41,24.10
2014,05,01,13,42,24.20
2014,05,01,13,43,24.20
2014,05,01,13,44,24.20
2014,05,01,13,45,24.30
2014,05,01,13,46,24.20
2014,05,01,13,47,24.20
2014,05,01,13,48,24.20
2014,05,01,13,49,24.30
2014,05,01,13,50,24.40
2014,05,01,13,51,24.50
2014,05,01,13,52,24.40
2014,05,01,13,53,24.30
2014,05,01,13,54,24.20
2014,05,01,13,55,24.20
2014,05,01,13,56,24.30
2014,05,01,13,57,24.40
2014,05,01,13,58,24.50
2014,05,01,13,59,24.70
2014,05,01,14,00,24.90
2014,05,01,14,01,25.00
2014,05,01,14,02,24.90
2014,05,01,14,03,24.80
2014,05,01,14,04,24.70
2014,05,01,14,05,24.50
2014,05,01,14,06,24.30
2014,05,01,14,07,24.10
2014,05,01,14,08,23.90
2014,05,01,14,09,23.80
2014,05,01,14,10,23.60
2014,05,01,14,11,23.40
2014,05,01,14,12,23.30
2014,05,01,14,13,23.20
2014,05,01,14,14,23.10
2014,05,01,14,15,23.00
2014,05,01,14,16,22.80
2014,05,01,14,17,22.70
2014,05,01,14,18,22.60
2014,05,01,14,19,22.50
2014,05,01,14,20,22.40
2014,05,01,14,21,22.40
2014,05,01,14,22,22.40
2014,05,01,14,23,22.40
2014,05,01,14,24,22.20
2014,05,01,14,25,22.00
2014,05,01,14,26,21.80
2014,05,01,14,27,21.60
2014,05,01,14,28,21.60
2014,05,01,14,29,21.60
2014,05,01,14,30,21.50
2014,05,01,14,31,21.40
2014,05,01,14,32,21.40
2014,05,01,14,33,21.30
2014,05,01,14,34,21.30
2014,05,01,14,35,21.00
2014,05,01,14,36,20.90
2014,05,01,14,37,20.80
2014,05,01,14,38,20.70
2014,05,01,14,39,20.60
2014,05,01,14,40,20.40
2014,05,01,14,41,20.20
2014,05,01,14,42,20.20
2014,05,01,14,43,20.20
2014,05,01,14,44,20.20
2014,05,01,14,45,20.20
2014,05,01,14,46,20.20
2014,05,01,14,47,20.40
2014,05,01,14,48,20.40
2014,05,01,14,49,20.50
2014,05,01,14,50,20.60
2014,05,01,14,51,20.70
2014,05,01,14,52,20.80
2014,05,01,14,53,21.00
2014,05,01,14,54,21.10
2014,05,01,14,55,21.30
2014,05,01,14,56,21.50
2014,05,01,14,57,21.60
2014,05,01,14,58,21.60
2014,05,01,14,59,21.70
2014,05,01,15,00,21.80
2014,05,01,15,01,21.80
2014,05,01,15,02,21.80
2014,05,01,15,03,21.80
2014,05,01,15,04,21.80
2014,05,01,15,05,21.70
2014,05,01,15,06,21.70
2014,05,01,15,07,21.70
2014,05,01,15,08,21.70
2014,05,01,15,09,21.70
2014,05,01,15,10,21.70
2014,05,01,15,11,21.60
2014,05,01,15,12,21.70
2014,05,01,15,13,21.60
2014,05,01,15,14,21.60
2014,05,01,15,15,21.60
2014,05,01,15,16,21.70
2014,05,01,15,17,21.70
2014,05,01,15,18,21.60
2014,05,01,15,19,21.70
2014,05,01,15,20,21.70
2014,05,01,15,21,21.70
2014,05,01,15,22,21.60
2014,05,01,15,23,21.60
2014,05,01,15,24,21.70
2014,05,01,15,25,21.90
2014,05,01,15,26,21.90
2014,05,01,15,27,22.00
2014,05,01,15,28,22.00
2014,05,01,15,29,21.90
2014,05,01,15,30,21.90
2014,05,01,15,31,21.90
2014,05,01,15,32,21.80
2014,05,01,15,33,21.60
2014,05,01,15,34,21.40
2014,05,01,15,35,21.30
2014,05,01,15,36,21.30
2014,05,01,15,37,21.30
2014,05,01,15,38,21.20
2014,05,01,15,39,21.10
2014,05,01,15,40,21.10
2014,05,01,15,41,21.10
2014,05,01,15,42,21.00
2014,05,01,15,43,20.90
2014,05,01,15,44,21.00
2014,05,01,15,45,21.00
2014,05,01,15,46,20.90
2014,05,01,15,47,20.80
2014,05,01,15,48,20.70
2014,05,01,15,49,20.70
2014,05,01,15,50,20.70
2014,05,01,15,51,20.70
2014,05,01,15,52,20.70
2014,05,01,15,53,20.70
2014,05,01,15,54,20.80
2014,05,01,15,55,21.00
2014,05,01,15,56,21.00
2014,05,01,15,57,21.10
2014,05,01,15,58,21.10
2014,05,01,15,59,21.10
2014,05,01,16,00,21.20
2014,05,01,16,01,21.20
2014,05,01,16,02,21.10
2014,05,01,16,03,21.10
2014,05,01,16,04,21.00
2014,05,01,16,05,21.00
2014,05,01,16,06,20.90
2014,05,01,16,07,21.00
2014,05,01,16,08,21.00
2014,05,01,16,09,20.90
2014,05,01,16,10,21.00
2014,05,01,16,11,21.00
2014,05,01,16,12,21.10
2014,05,01,16,13,21.30
2014,05,01,16,14,21.30
2014,05,01,16,15,21.20
2014,05,01,16,16,21.20
2014,05,01,16,17,21.20
2014,05,01,16,18,21.20
2014,05,01,16,19,21.20
2014,05,01,16,20,21.20
2014,05,01,16,21,21.30
2014,05,01,16,22,21.30
2014,05,01,16,23,21.40
2014,05,01,16,24,21.40
2014,05,01,16,25,21.40
2014,05,01,16,26,21.40
2014,05,01,16,27,21.50
2014,05,01,16,28,21.60
2014,05,01,16,29,21.60
2014,05,01,16,30,21.50
2014,05,01,16,31,21.40
2014,05,01,16,32,21.40
2014,05,01,16,33,21.30
2014,05,01,16,34,21.30
2014,05,01,16,35,21.30
2014,05,01,16,36,21.40
2014,05,01,16,37,21.40
2014,05,01,16,38,21.40
2014,05,01,16,39,21.50
2014,05,01,16,40,21.60
2014,05,01,16,41,21.60
2014,05,01,16,42,21.40
2014,05,01,16,43,21.30
2014,05,01,16,44,21.30
2014,05,01,16,45,21.30
2014,05,01,16,46,21.30
2014,05,01,16,47,21.30
2014,05,01,16,48,21.30
2014,05,01,16,49,21.30
2014,05,01,16,50,21.50
2014,05,01,16,51,21.60
2014,05,01,16,52,21.70
2014,05,01,16,53,21.80
2014,05,01,16,54,21.90
2014,05,01,16,55,22.00
2014,05,01,16,56,22.00
2014,05,01,16,57,22.00
2014,05,01,16,58,21.90
2014,05,01,16,59,21.90
2014,05,01,17,00,22.00
2014,05,01,17,01,22.00
2014,05,01,17,02,21.90
2014,05,01,17,03,22.00
2014,05,01,17,04,22.10
2014,05,01,17,05,22.10
2014,05,01,17,06,22.10
2014,05,01,17,07,22.10
2014,05,01,17,08,22.10
2014,05,01,17,09,22.10
2014,05,01,17,10,22.20
2014,05,01,17,11,22.20
2014,05,01,17,12,22.30
2014,05,01,17,13,22.40
2014,05,01,17,14,22.40
2014,05,01,17,15,22.40
2014,05,01,17,16,22.40
2014,05,01,17,17,22.40
2014,05,01,17,18,22.40
2014,05,01,17,19,22.30